Wind_Speed
19 20 20 21 21 21 22 22 22 21 21 21 21 21 22 22 22 22 22 22 22 21 22 22 21 21 21 21 21 21 21 20 21 21 21 21 21 21
19 20 21 21 22 23 23 23 23 23 23 23 22 22 22 22 22 22 22 22 22 22 22 23 22 23 23 22 22 22 22 21 22 22 22 22 22 22
20 20 21 22 22 23 23 24 24 25 24 23 23 23 23 22 23 23 23 23 23 23 23 23 23 23 24 24 24 24 23 23 23 23 23 23 23 23
21 21 22 22 23 23 23 24 24 25 25 24 24 24 24 23 24 23 23 24 24 24 24 24 24 24 24 24 25 24 24 24 24 25 24 24 24 24
21 22 22 22 23 23 24 24 25 25 25 25 25 26 25 25 24 24 24 24 25 25 25 25 25 25 24 24 24 24 25 25 25 25 25 25 25 25
21 22 22 23 23 23 23 24 25 26 26 26 26 27 27 27 26 26 25 25 25 25 25 25 25 25 25 25 25 25 25 25 25 25 26 26 26 26
22 23 23 23 24 24 24 24 25 26 26 26 26 27 27 28 28 27 27 26 26 26 26 26 26 25 26 26 25 25 25 25 25 26 26 26 26 26
24 24 24 25 25 25 25 25 25 26 26 27 26 27 27 27 28 28 28 28 28 27 27 27 26 26 26 26 26 26 26 26 26 26 26 26 26 26
25 25 26 26 26 26 26 26 26 26 26 26 26 26 26 27 28 28 29 29 28 29 28 28 28 27 27 27 27 27 27 27 26 26 26 26 26 26
26 27 27 27 27 28 28 28 28 28 27 27 26 26 27 28 29 30 30 29 29 29 30 29 28 28 28 28 28 28 28 27 26 26 26 27 27 26
27 28 28 28 28 28 29 29 29 29 29 29 29 28 28 29 29 29 29 29 29 30 30 30 29 29 29 28 28 28 28 27 27 27 27 27 27 27
28 29 29 29 29 29 29 29 29 30 30 30 29 29 29 29 30 30 29 29 29 29 30 30 30 29 29 28 29 28 28 28 28 27 27 27 28 28
29 29 30 29 29 29 30 30 30 30 30 31 31 30 29 30 30 31 30 30 30 30 30 30 30 30 30 29 29 29 28 28 28 28 27 28 28 29
29 30 30 30 30 30 30 30 31 31 30 31 31 31 30 30 30 31 31 31 31 32 31 31 31 31 30 30 29 29 29 28 28 28 28 28 28 29
30 30 30 31 31 31 31 31 31 31 30 31 31 31 30 30 30 30 31 31 31 32 32 31 31 31 30 30 30 29 29 29 28 28 28 28 28 28
31 31 31 32 32 32 32 31 31 30 30 30 31 31 30 30 30 30 31 31 31 32 32 31 31 31 30 30 30 29 29 29 28 28 28 28 28 28
31 31 32 32 32 32 31 31 31 31 30 30 30 31 30 30 30 30 31 31 32 32 32 31 31 32 31 31 30 30 29 29 29 29 29 29 29 28
31 31 31 31 31 32 31 31 31 31 31 31 31 30 30 30 31 31 31 32 32 32 32 32 32 32 32 31 30 30 30 29 30 30 29 29 29 29
32 31 31 31 31 31 31 31 31 31 31 31 31 31 31 31 31 32 32 31 31 32 32 32 32 32 32 32 32 32 30 29 29 30 30 29 28 28
31 31 31 31 31 31 31 31 30 30 31 31 31 31 31 31 32 32 32 32 32 32 33 33 33 33 32 32 31 31 31 30 29 29 30 30 29 28
30 31 31 31 31 30 30 30 30 30 30 30 30 30 31 32 32 32 33 32 32 32 32 32 32 32 32 32 32 31 31 30 29 28 29 29 29 28
30 30 30 30 29 29 29 29 29 29 29 29 29 30 30 31 31 32 32 31 31 31 31 32 32 31 31 31 31 31 32 31 29 29 29 29 29 28
28 28 28 28 28 28 28 28 28 28 28 29 29 29 29 30 30 30 30 30 29 29 30 30 30 31 31 31 31 31 31 31 30 29 30 30 29 28
Wind_Direction
262 263 264 265 266 266 264 263 264 264 263 261 261 260 262 261 259 258 257 257 257 257 258 259 259 258 258 257 257 256 255 254 253 252 253 254 254 255
265 264 265 266 267 266 265 265 265 263 263 262 261 260 261 260 258 258 257 257 258 259 258 259 260 259 257 257 257 256 256 255 253 253 253 254 256 257
267 267 267 267 268 266 265 265 265 264 263 261 262 261 261 261 259 259 259 259 260 260 260 261 261 260 257 257 257 255 255 255 255 255 254 255 256 258
269 269 269 270 270 269 268 266 266 265 265 262 262 260 260 261 259 259 260 261 261 260 261 261 261 261 259 258 257 256 257 257 257 256 255 255 256 257
270 271 271 270 271 270 270 268 266 266 265 262 262 260 259 259 259 260 260 260 260 259 260 261 261 260 259 259 258 257 258 258 258 257 256 255 257 258
271 272 272 271 271 272 273 270 268 267 265 263 262 262 260 259 260 260 260 259 259 259 259 260 259 259 258 259 258 258 259 259 259 258 258 258 258 259
273 273 272 272 272 273 274 272 271 268 266 264 263 262 261 260 259 258 258 259 259 259 259 260 259 258 258 259 259 260 260 259 259 258 257 257 258 259
274 273 273 273 273 273 274 274 273 271 267 264 263 263 262 260 258 257 257 258 258 257 257 258 258 258 259 259 259 259 259 258 257 258 259 259 259 258
275 274 274 273 272 273 273 273 273 272 270 267 264 264 263 261 260 259 258 259 259 258 258 258 257 257 258 259 260 259 258 257 258 259 259 258 258 257
276 275 275 274 273 274 274 273 273 272 271 269 266 265 263 262 260 259 259 259 259 259 258 258 257 258 259 259 259 259 259 259 260 260 259 257 257 256
277 275 275 274 274 275 275 274 273 272 270 269 267 267 265 262 261 259 257 256 257 258 258 258 258 258 258 259 258 259 260 260 260 259 258 257 258 257
277 275 275 274 273 274 275 275 274 272 270 268 268 265 265 262 261 260 259 258 258 257 258 257 257 258 259 260 260 260 260 259 258 258 259 259 259 258
278 276 274 273 273 274 275 275 274 272 271 268 268 267 266 263 261 259 259 259 259 259 258 257 258 259 260 260 260 260 260 259 258 258 260 261 261 259
277 276 275 273 273 274 275 275 274 273 272 269 268 267 265 263 261 259 259 258 258 258 257 256 256 257 259 259 258 258 258 258 258 258 259 260 261 262
277 275 274 274 273 274 274 273 273 273 273 271 268 266 264 263 261 258 258 258 259 257 257 257 256 256 257 257 256 256 258 258 258 259 259 259 260 261
278 277 275 274 274 275 274 273 272 272 272 271 268 264 262 262 261 259 259 259 259 257 256 256 255 255 256 256 255 254 255 257 258 258 259 258 259 260
278 277 277 275 274 274 274 272 272 271 270 270 269 265 262 262 262 261 259 259 258 256 255 255 255 255 254 255 255 253 253 256 258 258 258 258 259 260
277 278 278 277 275 274 274 273 272 271 269 268 267 265 263 262 262 261 261 260 257 255 255 254 255 255 256 256 255 254 254 255 256 257 259 258 259 259
278 278 277 276 276 276 275 274 272 270 269 269 266 263 263 263 263 262 262 260 258 255 253 252 252 253 254 254 254 254 254 255 256 256 258 259 259 259
279 277 277 277 277 277 276 273 272 270 269 268 268 265 264 264 264 263 261 259 257 255 253 252 252 252 253 253 252 252 252 254 255 256 257 257 258 258
278 277 277 277 277 277 275 273 270 270 269 268 267 265 264 264 264 263 261 259 257 255 253 251 251 252 253 252 251 250 251 253 254 255 256 256 256 257
279 278 277 277 277 277 275 273 271 270 270 268 267 265 264 264 263 262 260 258 257 255 253 251 250 251 251 251 250 250 249 250 252 254 255 256 256 256
279 278 277 277 277 276 275 274 273 272 270 269 268 267 265 264 262 259 257 256 256 255 254 252 251 252 251 251 251 250 250 250 252 253 255 255 256 255
Height
5780 5781 5781 5781 5781 5781 5781 5782 5782 5781 5781 5781 5781 5781 5781 5782 5782 5783 5783 5784 5784 5785 5786 5787 5788 5788 5788 5789 5789 5790 5790 5791 5792 5793 5795 5795 5796 5797
5775 5775 5775 5775 5775 5775 5775 5775 5775 5775 5775 5775 5775 5775 5775 5775 5776 5777 5777 5778 5779 5779 5780 5781 5781 5782 5783 5783 5784 5785 5785 5786 5787 5788 5789 5790 5791 5792
5769 5769 5769 5768 5768 5768 5768 5768 5768 5768 5768 5768 5768 5769 5769 5769 5770 5770 5771 5772 5772 5773 5774 5774 5775 5776 5776 5777 5777 5778 5779 5780 5781 5781 5782 5783 5784 5785
5762 5762 5762 5762 5762 5761 5761 5761 5760 5761 5761 5761 5761 5762 5762 5763 5763 5764 5764 5765 5766 5766 5767 5767 5768 5769 5769 5770 5771 5772 5772 5773 5774 5775 5775 5776 5777 5778
5756 5756 5756 5755 5755 5754 5754 5753 5753 5753 5754 5754 5754 5755 5755 5756 5756 5757 5758 5758 5759 5759 5760 5760 5761 5761 5762 5763 5763 5764 5765 5766 5767 5767 5768 5769 5770 5771
5750 5750 5749 5749 5748 5747 5747 5746 5746 5746 5746 5746 5747 5747 5748 5748 5749 5750 5750 5751 5751 5752 5752 5753 5753 5754 5755 5755 5756 5757 5757 5758 5759 5760 5760 5761 5762 5762
5743 5743 5743 5742 5742 5741 5740 5739 5739 5738 5738 5738 5739 5739 5740 5740 5741 5742 5742 5743 5743 5744 5745 5745 5746 5747 5747 5748 5749 5749 5750 5750 5750 5751 5752 5753 5753 5754
5736 5736 5735 5735 5734 5733 5733 5732 5731 5731 5730 5730 5730 5731 5731 5732 5732 5733 5734 5735 5735 5737 5737 5737 5738 5739 5739 5740 5740 5741 5741 5742 5742 5743 5743 5744 5745 5746
5729 5728 5728 5727 5726 5726 5725 5724 5723 5722 5722 5722 5722 5722 5723 5723 5724 5725 5725 5726 5727 5727 5729 5729 5729 5730 5731 5731 5732 5732 5733 5733 5734 5734 5735 5736 5737 5738
5721 5720 5719 5719 5718 5717 5716 5715 5715 5714 5714 5713 5713 5713 5713 5714 5715 5715 5716 5717 5718 5718 5720 5721 5721 5722 5722 5722 5723 5724 5724 5725 5725 5726 5727 5728 5729 5730
5712 5711 5710 5710 5709 5708 5707 5706 5706 5705 5704 5704 5704 5704 5704 5704 5705 5705 5706 5707 5708 5709 5710 5711 5712 5713 5713 5714 5714 5715 5715 5716 5717 5717 5718 5719 5720 5721
5704 5702 5701 5700 5699 5698 5698 5697 5696 5695 5695 5694 5694 5694 5694 5694 5694 5695 5696 5698 5699 5700 5700 5702 5703 5703 5704 5705 5705 5706 5707 5708 5708 5709 5710 5711 5712 5713
5694 5693 5692 5691 5690 5689 5688 5687 5686 5685 5685 5684 5684 5684 5684 5684 5684 5685 5686 5688 5689 5691 5691 5693 5694 5695 5695 5696 5697 5697 5698 5699 5700 5701 5701 5702 5703 5704
5685 5683 5682 5681 5680 5679 5678 5677 5676 5676 5675 5674 5674 5674 5674 5674 5674 5675 5676 5677 5679 5681 5681 5683 5684 5685 5686 5687 5688 5688 5689 5690 5691 5692 5693 5694 5694 5694
5675 5674 5672 5671 5670 5670 5669 5667 5666 5666 5665 5664 5664 5663 5663 5664 5664 5665 5666 5667 5669 5670 5671 5673 5675 5676 5677 5678 5679 5680 5681 5682 5682 5683 5684 5685 5685 5686
5665 5664 5662 5661 5660 5659 5658 5657 5656 5656 5655 5654 5654 5653 5653 5654 5654 5655 5656 5658 5659 5660 5662 5663 5665 5666 5667 5669 5670 5671 5672 5673 5674 5674 5675 5676 5676 5677
5655 5654 5652 5651 5650 5649 5648 5647 5646 5645 5645 5644 5644 5644 5644 5644 5645 5646 5647 5648 5649 5651 5652 5654 5655 5656 5658 5659 5660 5661 5663 5664 5664 5665 5666 5667 5667 5668
5645 5644 5642 5641 5640 5639 5638 5637 5636 5635 5634 5634 5634 5634 5634 5635 5635 5636 5637 5638 5639 5640 5642 5644 5645 5646 5648 5649 5651 5652 5653 5654 5655 5656 5657 5658 5659 5659
5635 5634 5632 5631 5630 5628 5627 5626 5626 5625 5624 5624 5624 5624 5625 5625 5626 5626 5627 5628 5629 5630 5632 5633 5635 5636 5638 5640 5641 5642 5644 5645 5646 5647 5648 5649 5650 5650
5625 5623 5622 5621 5619 5618 5617 5616 5615 5615 5614 5614 5614 5614 5615 5615 5616 5616 5617 5618 5619 5620 5622 5623 5625 5626 5628 5630 5631 5633 5633 5635 5636 5637 5638 5639 5640 5641
5614 5613 5612 5610 5609 5608 5607 5606 5605 5605 5604 5604 5604 5604 5604 5605 5605 5606 5606 5607 5608 5609 5611 5613 5614 5616 5618 5620 5621 5623 5624 5625 5626 5627 5629 5630 5631 5632
5604 5603 5601 5600 5599 5598 5597 5596 5595 5595 5594 5594 5594 5594 5594 5594 5595 5595 5596 5596 5597 5599 5600 5602 5604 5606 5607 5609 5611 5613 5614 5615 5616 5617 5619 5620 5621 5622
5594 5593 5592 5591 5589 5588 5587 5586 5585 5585 5585 5584 5584 5584 5584 5584 5584 5585 5585 5586 5587 5588 5590 5591 5593 5595 5597 5598 5600 5602 5604 5606 5607 5608 5609 5610 5612 5613